Current Version              Previous Version:    01  02  03  04  05  06  07  08  09  10  11  12  13  14  15  16  17  18  19  20  21  22  23  24  25  26  27  28  29  30  
   31  32  33  34  35  36  37  38  39  40  41  42  43  44  45  46  47  48  49  50  51  52  53  54  55  56  57  58  59  60  

[Printable]
277
ASUS44 KEWX 241510
RWRTX
SOUTH TEXAS REGIONAL WEATHER ROUNDUP
NATIONAL WEATHER SERVICE AUSTIN/SAN ANTONIO TX
1000 AM CDT FRI OCT 24 2014

NOTE: "FAIR" INDICATED FEW OR NO CLOUDS BELOW 12,000 FEET WITH NO
SIGNIFICANT WEATHER AND/OR OBSTRUCTIONS TO VISIBILITY.

* - THESE STATIONS ARE NOT NWS OR FAA STATIONS...AND ARE NOT SUBJECT
    TO NWS AND FAA QUALITY CONTROL.

TXZ171-172-183>190-241600-
TEXAS HILL COUNTRY AND EDWARDS PLATEAU

CITY           SKY/WX    TMP DP  RH WIND       PRES   REMARKS
JUNCTION       SUNNY     63  57  81 CALM      30.20R
*LLANO         NOT AVBL
BURNET         SUNNY     68  57  68 CALM      30.21R
*HORSESHOE BAY SUNNY     71  58  63 CALM      30.19R
*KERRVILLE     SUNNY     64  59  84 CALM      30.21R
*FREDERICKSBRG SUNNY     65  59  81 CALM      30.20R
*ROCKSPRINGS   SUNNY     68  59  73 SE6       30.24R
*BOERNE STAGE  SUNNY     70  63  78 SW3       30.20S
*CASTROVILLE   SUNNY     71  57  61 CALM      30.20R HAZE
HONDO          SUNNY     68  60  75 CALM      30.20R
*UVALDE        SUNNY     70  63  77 CALM      30.20R
DEL RIO        SUNNY     68  60  75 SE7       30.17R
LAUGHLIN AFB   SUNNY     68  62  82 SE9       30.17R
CARRIZO SPRGS  SUNNY     70  61  73 CALM      30.17R
$$

TXZ173-191>194-202-209-217>225-228-241600-
CENTRAL AND SOUTH CENTRAL TEXAS

CITY           SKY/WX    TMP DP  RH WIND       PRES   REMARKS
GEORGETOWN     SUNNY     66  57  72 CALM      30.19R
AUSTIN/BERGSTM MOSUNNY   66  58  75 CALM      30.19R
AUSTIN/MABRY   SUNNY     69  58  67 VRB3      30.20R
*AUSTIN/EXEC   SUNNY     66  55  68 SE5       30.20R
*LAGO VISTA    SUNNY     70  58  64 S3        30.20R
SAN MARCOS     SUNNY     68  54  60 S3        30.20R
NEW BRAUNFELS  SUNNY     70  58  65 SE3       30.18R
RANDOLPH AFB   SUNNY     70  57  63 E2        30.19R
PT SAN ANTONIO SUNNY     72  60  66 VRB2      30.17R
SAN ANTONIO    SUNNY     72  60  66 CALM      30.19R
STINSON FIELD  SUNNY     71  58  63 CALM      30.17R
*PLEASANTON    SUNNY     70  59  69 CALM      30.19R
*LA GRANGE     SUNNY     68  58  70 CALM      30.17R
*GIDDINGS      MOSUNNY   66  56  69 CALM      30.23R
*GONZALES      SUNNY     69  59  69 CALM      30.18R
$$

TXZ163>164-176>182-195>201-210>213-226-227-235-241600-
SOUTHEAST TEXAS

CITY           SKY/WX    TMP DP  RH WIND       PRES   REMARKS
COLLEGE STN    SUNNY     64  54  69 SE6       30.19R
*BRYAN         SUNNY     64  55  75 SE5       30.20S
*CALDWELL      MOSUNNY   64  55  72 CALM      30.23R
*CROCKETT      SUNNY     64  55  72 SE3       30.22R
*BRENHAM       SUNNY     66  55  67 CALM      30.20S
HUNTSVILLE     SUNNY     64  51  62 CALM      30.19R
CONROE         SUNNY     62  52  69 CALM      30.19R
HOUSTON BUSH   SUNNY     64  53  67 NE5       30.18R
HOUSTON HOBBY  SUNNY     66  55  67 NE5       30.17R
*HOUSTON SW AP SUNNY     59  51  73 NE5       30.18R
PEARLAND       SUNNY     67  53  61 NE7       30.18R
HOUSTON HOOKS  SUNNY     64  53  67 NE3       30.19R
ELLINGTON FLD  SUNNY     64  54  68 N5        30.19R
SUGAR LAND     SUNNY     67  55  65 NE5       30.17R
*HOUSTON EXEC  SUNNY     64 N/A N/A E5        30.20R
*CLEVELAND MUN SUNNY     62  56  80 CALM      30.20
*WHARTON       SUNNY     68  57  69 CALM      30.18R
*COLUMBUS      FAIR      66  57  74 CALM      30.18R
$$

TXZ214>216-236>238-241600-
THE UPPER TEXAS COAST

CITY           SKY/WX    TMP DP  RH WIND       PRES   REMARKS
*ORANGE        SUNNY     60  55  83 CALM      30.18S
PORT ARTHUR    SUNNY     64  53  67 NE5       30.16R
GALVESTON      SUNNY     69  56  62 N9        30.16R
ANGLETON       SUNNY     66  59  78 NE8       30.16R
*BAY CITY        N/A     67  62  82 NE3       30.16R
PALACIOS       SUNNY     70  59  68 NE7       30.16R
$$

TXZ229>234-239>247-241600-
TEXAS COASTAL BEND AND RIO GRANDE PLAINS

CITY           SKY/WX    TMP DP  RH WIND       PRES   REMARKS
VICTORIA       SUNNY     70  58  65 NE3       30.17R
*BEEVILLE      SUNNY     72  61  68 NE3       30.16R
ROCKPORT       SUNNY     75  63  66 N8        30.15R
*PORT ARANSAS  SUNNY     74  65  71 NE8       30.14R
*PORT LAVACA   SUNNY     69  60  70 NE9       30.16R
*INGLESIDE     SUNNY     74  65  74 NE7       30.15R
CORPUS CHRISTI SUNNY     73  66  78 N6        30.15R
CORPUS NAS     MOSUNNY   76  67  73 N10       30.14R
*ROBSTOWN      HVY RAIN  73  66  80 CALM      30.16R
ALICE          SUNNY     74  65  73 N7        30.16R
KINGSVILLE NAS SUNNY     75  68  78 N6        30.16R
COTULLA        SUNNY     74  62  66 VRB5      30.17R
*FAITH RANCH   SUNNY     72  63  73 S9        30.17R
LAREDO         SUNNY     74  65  73 CALM      30.20R
$$

TXZ248>255-241600-
DEEP SOUTH TEXAS

CITY           SKY/WX    TMP DP  RH WIND       PRES   REMARKS
BROWNSVILLE    SUNNY     78  68  71 N8        30.14R
PORT ISABEL    SUNNY     78  67  68 N7        30.13R
*SOUTH PADRE   SUNNY    N/A N/A N/A NE9       30.13R
HARLINGEN      SUNNY     76  68  76 N7        30.13R
*HEBBRONVILLE  SUNNY     73  64  73 CALM      30.18R
MCALLEN        SUNNY     75  65  70 N3        30.16R
*WESLACO       SUNNY     74  64  72 N3        30.15R
FALFURRIAS     SUNNY     72  65  79 NE3       30.15R
EDINBURG       SUNNY     73  66  79 N3        30.16R
*ZAPATA        SUNNY     74  64  69 S3        30.16R
$$

TXZ213>215-236>238-242>244-246-247-251-254-255-241600-
CMAN STATIONS

STATION/POSITION TIME  TEMP    WIND        PRES    WAVE
                       AIR SEA DIR/SP/G            HT/PER
                 (UTC) (F)     (DEG/KT/KT) (MB)    (FT/S)
SABINE PASS      1500   61 71   40/  9/ 11 1021.4
SEA RIM ST PARK  1500   63      40/  9/ 10 1021.9
NORTH JETTY/GLS  1500   65 73   60/  8/  9   N/A
EAGLE POINT      1500   64 72   50/  8/ 10 1021.6
MORGANS POINT    1500   62      30/  6/  7 1021.6
MISSION/ARANSAS  1400           30/  9     1021.0
PORT O`CONNOR    1500           20/  9/ 12   N/A
PORT ARANSAS     1500   74 78   20/  9/ 10 1021.4
MALAQUITE BEACH  1500   74 77   10/  9/ 10 1020.1
BAFFIN BAY       1500   73 80  360/  7/  8 1020.7
PORT ISABEL      1500   78 78  360/  6/ 10 1020.2
$$

GMZ080-GMZ150>470-241600-
OFFSHORE BUOY REPORTS

STATION/POSITION TIME  TEMP    WIND        PRES    WAVE
                       AIR SEA DIR/SP/G            HT/PER
                 (UTC) (F)     (DEG/KT/KT) (MB)    (FT/S)
20 E GALVESTON   1500   67 77   30/ 10/ 12 1020.6    2/ 8
90 E PT ARANSAS  1500   74 81   10/ 10/ 14 1020.6    4/ 8
35 NE PT MANSFLD 1500   77 80   30/ 10/ 12 1019.8    3/ 8
200 E PT ISABEL  1500   76 81   20/ 12/ 14 1018.9    5/ 8
$$